User: anonymous   Login
Location: Vale
(35.4830°N, 81.3830°W)
Time: 09:02:58
(UTC-04:00)
Language:

Cosmos 2237 Rocket - Orbit

View from above orbital plane
View from above orbital plane
View from above satellite
View from above satellite

Ground track
Ground track

The orbit data is extracted from the following two-line orbital elements,

1 22566U 93016B   15142.19267002 -.00000177  00000-0 -66639-4 0  9991
2 22566 071.0076 215.8345 0011588 215.3667 144.6688 14.14898639144194
Epoch (UTC): 22 May 2015 04:37:26
Eccentricity: 0.0011588
inclination: 71.0076°
perigee height: 834 km
apogee height: 851 km
right ascension of ascending node: 215.8345°
argument of perigee: 215.3667°
revolutions per day: 14.14898639
mean anomaly at epoch: 144.6688°
orbit number at epoch: 14419

The dashed part of the orbit path shows where the satellite is in the earth's shadow,  

DLR